STARLINK-3857 (52494 NORAD) Tracking and Keplerian Element Data
This shows tracking and keplerian element data for the satellite.
Feedback or suggestion? Click here.
Element | Value |
Catalog | 52494 |
Name | STARLINK-3857 |
Epoch Orbit | 1069 |
Epoch Day | 193.25001157 |
Epoch Year | 2022 |
RAAN | 295.4704 |
Inclination | 53.2175 |
Eccentricity | 0.000309 |
Argument of Perigee | 8.7361 |
Mean Anonmoly | 109.6155 |
Mean Motion | 15.73093901 |
Decay Rate | -0.00983327 |
L1 | 1 52494U 22049AV 22193.25001157 -.00983327 00000+0 -77578-2 0 9998 |
L2 | 2 52494 53.2175 295.4704 0003090 8.7361 109.6155 15.73093901 10698 |
Live tracking and technical data element details for STARLINK-3857 (NORAD 52494). STARLINK-3857 can be tracked NOW for your location showing map with azimuth and elevation plus other details from your city location.
Track the satellite on the map from your city or location and see movement details for azimuth, elevation, latitude, longitude, range, height, and movement on the map or in text.
IsCatalogInMostPopularTable: catalog: 52494, numindb: 7
Update: records affected: 1
GetName: 52494 STARLINK-3857
Hit Count: updated at: Sun, 14 Aug 2022 00:57:01 GMT